[[{"header":{"parameterUnit":"m.s-1","parameterCategory":1,"la1":30.2991,"la2":30.254,"lo1":-89.0895,"lo2":-89.0444,"dy":0.0017,"dx":0.0017,"nx":28,"ny":28,"refTime":"2025-08-07T09:00:00:Z","depth":0,"parameterNumber":2,"parameterNumberName":"U-component_of_WINDS"},"data":[0,0,0,0,0,0,0,0,0,0,0,0,0,0,0,0,0,0,0,0,0,0,0,0,0,0,0,0,0,0,0,0,0,0,0,0,0,0,0,0,0,0,0,0,0,0,0,0,0,0,0,0,0,0,0,0,0,0,-3.6822,-3.6821,0,-3.6761,-3.676,-3.6759,-3.669,-3.6689,-3.6688,-3.6687,-3.6625,-3.6624,-3.6623,0,0,0,0,0,0,0,0,0,0,0,0,0,-3.688,-3.6879,-3.6822,-3.6821,-3.682,-3.6761,-3.676,-3.6759,-3.669,-3.6689,-3.6688,-3.6687,-3.6625,-3.6624,-3.6623,0,0,0,0,0,0,0,0,0,0,0,0,0,-3.684,-3.6879,-3.6822,-3.6779,-3.6774,-3.6761,-3.676,-3.6759,-3.6691,-3.6689,-3.6688,-3.6686,-3.6625,-3.6624,-3.6623,-3.6647,0,0,-3.662,-3.6619,0,0,0,0,0,0,0,0,-3.6843,-3.6838,-3.6786,-3.6782,-3.6777,-3.6731,-3.6757,-3.6721,-3.6691,-3.6722,-3.6687,-3.6685,-3.6661,-3.6657,-3.6649,-3.6644,-3.6641,-3.662,-3.6619,-3.6618,-3.6618,0,0,0,0,0,0,0,-3.6846,-3.6841,-3.6798,-3.6785,-3.678,-3.6763,-3.6756,-3.675,-3.6701,-3.672,-3.6714,-3.6708,-3.6659,-3.665,-3.6647,-3.664,-3.662,-3.6619,-3.6618,-3.6618,-3.6653,-3.6654,0,0,0,0,0,0,-3.6855,-3.6843,-3.6799,-3.6796,-3.6807,-3.6763,-3.6755,-3.6748,-3.6701,-3.6693,-3.671,-3.6705,-3.6653,-3.6648,-3.6645,-3.667,-3.6618,-3.6617,-3.6617,-3.6651,-3.6653,-3.6655,0,0,0,0,0,0,-3.6856,-3.6852,-3.6802,-3.6818,-3.6811,-3.6764,-3.6756,-3.6747,-3.6739,-3.6693,-3.6684,-3.671,-3.6651,-3.6646,-3.6647,-3.6667,-3.6617,-3.6616,-3.6649,-3.6652,-3.6654,-3.672,0,0,0,0,0,0,-3.6858,-3.6852,-3.6861,-3.6819,-3.681,-3.6805,-3.6757,-3.6747,-3.6737,-3.6731,-3.6691,-3.6684,-3.665,-3.6649,-3.6646,-3.6664,-3.6615,-3.6647,-3.6651,-3.6653,-3.6716,-3.6724,-3.6732,0,0,0,0,0,-3.6861,-3.6881,-3.6861,-3.6856,-3.6819,-3.6806,-3.6801,-3.6762,-3.6739,-3.6747,-3.6718,-3.6685,-3.6666,-3.665,-3.6646,-3.6664,-3.6646,-3.665,-3.6653,-3.6712,-3.6723,-3.6732,0,0,0,0,0,0,-3.6926,-3.6875,-3.6852,-3.686,-3.6838,-3.6795,-3.6803,-3.6774,-3.6758,-3.6753,-3.6705,-3.6697,-3.6704,-3.6684,-3.6668,-3.6685,-3.6651,-3.6654,-3.6697,-3.6707,-3.6715,-3.6719,-3.6614,0,0,0,0,0,-3.6942,-3.6935,-3.6891,-3.6902,-3.6893,-3.6851,-3.6843,-3.6815,-3.6791,-3.6781,-3.6752,-3.6729,-3.6718,-3.6712,-3.6699,-3.6714,-3.6704,-3.6724,-3.6732,-3.6739,-3.6742,-3.6749,-3.6757,-3.6667,-3.6667,-3.6667,0,0,-3.6973,-3.6944,-3.6943,-3.6915,-3.6894,-3.6889,-3.6843,-3.6839,-3.6835,-3.678,-3.6779,-3.6758,-3.673,-3.6738,-3.674,-3.6721,-3.6765,-3.6744,-3.6749,-3.6748,-3.6753,-3.6762,-3.6769,-3.6669,-3.6669,-3.6668,0,0,-3.7027,-3.7006,-3.7013,-3.6994,-3.6964,-3.6936,-3.6938,-3.69,-3.6883,-3.6882,-3.6841,-3.6836,-3.6817,-3.6799,-3.6787,-3.6838,-3.6807,-3.6836,-3.6876,-3.6884,-3.6891,-3.6897,-3.6915,-3.6922,-3.6839,-3.6839,-3.6839,0,-3.707,-3.706,-3.702,-3.7019,-3.7008,-3.696,-3.6967,-3.695,-3.6918,-3.6912,-3.6892,-3.6869,-3.6846,-3.685,-3.6863,-3.6855,-3.6856,-3.6839,-3.6893,-3.6899,-3.6904,-3.692,-3.6927,-3.6843,-3.6842,-3.6842,-3.6841,0,-3.7115,-3.7109,-3.7118,-3.7089,-3.7079,-3.7082,-3.7043,-3.7038,-3.7012,-3.6986,-3.6986,-3.6958,-3.6939,-3.6938,-3.6912,-3.6939,-3.6928,-3.6902,-3.6866,-3.6917,-3.6931,-3.6937,-3.6848,-3.6846,-3.6845,-3.6844,0,0,-3.7206,-3.7156,-3.716,-3.7146,-3.7111,-3.7106,-3.7108,-3.709,-3.7087,-3.7067,-3.7067,-3.7054,-3.703,-3.7017,-3.6989,-3.6996,-3.7038,-3.6968,-3.6966,-3.6981,-3.7065,-3.7085,-3.7093,-3.7018,-3.7019,-3.702,-3.7067,0,-3.7253,-3.7253,-3.7218,-3.7227,-3.7222,-3.7177,-3.7179,-3.7158,-3.7135,-3.7127,-3.7102,-3.7093,-3.7062,-3.7054,-3.7059,-3.7032,-3.7054,-3.7028,-3.7017,-3.7017,-3.7024,-3.71,-3.712,-3.7166,-3.7073,-3.7074,-3.7075,0,-3.7308,-3.7292,-3.7301,-3.7267,-3.7263,-3.7265,-3.7247,-3.724,-3.7216,-3.7199,-3.7186,-3.7155,-3.7155,-3.7123,-3.7122,-3.7106,-3.71,-3.7086,-3.7087,-3.7083,-3.7048,-3.7098,-3.718,-3.7187,-3.7083,-3.7083,-3.7082,0,-3.7373,-3.7354,-3.7357,-3.7347,-3.7307,-3.731,-3.7294,-3.7268,-3.726,-3.7244,-3.7239,-3.7223,-3.7215,-3.7204,-3.717,-3.7149,-3.7174,-3.7138,-3.7159,-3.716,-3.7165,-3.7164,-3.7247,-3.7163,-3.7163,-3.7163,-3.7163,0,-3.7429,-3.7436,-3.7386,-3.7388,-3.7395,-3.7355,-3.7364,-3.7343,-3.7321,-3.7319,-3.728,-3.7279,-3.7234,-3.7228,-3.7202,-3.7206,-3.7202,-3.7189,-3.7181,-3.7191,-3.7193,-3.7185,-3.7181,-3.7165,-3.7165,-3.7164,-3.7164,0,-3.7501,-3.7468,-3.7469,-3.7432,-3.7423,-3.743,-3.7399,-3.7399,-3.7375,-3.7373,-3.737,-3.7332,-3.7323,-3.7288,-3.7271,-3.7253,-3.7265,-3.7252,-3.7273,-3.7268,-3.7291,-3.7289,-3.737,-3.7378,-3.7291,-3.7292,-3.7293,0,-3.7538,-3.7543,-3.7507,-3.7503,-3.7488,-3.7482,-3.7474,-3.7436,-3.7429,-3.7404,-3.7407,-3.7396,-3.7384,-3.7372,-3.7343,-3.733,-3.7315,-3.7344,-3.7312,-3.7323,-3.7314,-3.7314,-3.7314,-3.7351,-3.7352,-3.7353,-3.7353,0,-3.7607,-3.7591,-3.7581,-3.7566,-3.7557,-3.7543,-3.7527,-3.7526,-3.7484,-3.7479,-3.7469,-3.746,-3.7443,-3.7432,-3.7415,-3.7398,-3.7369,-3.7364,-3.7368,-3.7377,-3.739,-3.7383,-3.7291,-3.7362,-3.7361,-3.736,-3.736,-3.736,-3.7662,-3.7665,-3.764,-3.7631,-3.7615,-3.7601,-3.76,-3.7577,-3.7568,-3.7551,-3.753,-3.7523,-3.7501,-3.7475,-3.7461,-3.7456,-3.7439,-3.7445,-3.7447,-3.7448,-3.7453,-3.7392,-3.7453,-3.7452,-3.7452,-3.7452,-3.7452,0,-3.7728,-3.7711,-3.7703,-3.7682,-3.7675,-3.7649,-3.7631,-3.7626,-3.7621,-3.7603,-3.7593,-3.7583,-3.7572,-3.7544,-3.7531,-3.7532,-3.7519,-3.753,-3.7529,-3.7525,-3.7469,-3.7466,-3.7541,-3.7541,-3.7541,-3.7541,-3.7541,-3.7541,-3.7762,-3.7765,-3.7746,-3.7742,-3.7724,-3.7718,-3.7709,-3.7697,-3.7682,-3.7673,-3.7664,-3.7646,-3.7624,-3.7609,-3.7599,-3.7591,-3.7587,-3.7603,-3.7591,-3.7538,-3.7529,-3.7521,-3.7518,-3.7603,-3.7603,-3.7647,-3.7648,-3.7648]},{"header":{"parameterUnit":"m.s-1","parameterCategory":1,"la1":30.2991,"la2":30.254,"lo1":-89.0895,"lo2":-89.0444,"dy":0.0017,"dx":0.0017,"nx":28,"ny":28,"refTime":"2025-08-07T09:00:00:Z","depth":0,"parameterNumber":3,"parameterNumberName":"V-component_of_WINDS"},"data":[0,0,0,0,0,0,0,0,0,0,0,0,0,0,0,0,0,0,0,0,0,0,0,0,0,0,0,0,0,0,0,0,0,0,0,0,0,0,0,0,0,0,0,0,0,0,0,0,0,0,0,0,0,0,0,0,0,0,0.6156,0.6156,0,0.6163,0.6163,0.6164,0.6222,0.6224,0.6225,0.6227,0.623,0.6229,0.6228,0,0,0,0,0,0,0,0,0,0,0,0,0,0.6189,0.6188,0.6156,0.6156,0.6156,0.6163,0.6163,0.6164,0.6222,0.6224,0.6226,0.6227,0.6231,0.6229,0.6228,0,0,0,0,0,0,0,0,0,0,0,0,0,0.6183,0.6188,0.6156,0.6186,0.6189,0.6163,0.6163,0.6164,0.6222,0.6224,0.6226,0.6228,0.6231,0.6229,0.6227,0.6172,0,0,0.6222,0.6221,0,0,0,0,0,0,0,0,0.6184,0.6182,0.6182,0.6184,0.6187,0.6194,0.6177,0.6166,0.6221,0.6209,0.6227,0.6229,0.6216,0.6216,0.6212,0.6172,0.6172,0.6221,0.622,0.6219,0.6219,0,0,0,0,0,0,0,0.6184,0.6182,0.6159,0.6182,0.6185,0.6199,0.62,0.6175,0.62,0.621,0.6215,0.6215,0.6218,0.6214,0.6213,0.6172,0.6221,0.622,0.6219,0.6218,0.6086,0.6084,0,0,0,0,0,0,0.618,0.6182,0.6158,0.6159,0.6191,0.6196,0.6198,0.619,0.6201,0.6205,0.6213,0.6218,0.6216,0.6215,0.6213,0.6148,0.6219,0.6218,0.6217,0.6089,0.6086,0.6083,0,0,0,0,0,0,0.6181,0.6178,0.6158,0.6172,0.617,0.6193,0.6184,0.6189,0.6185,0.6203,0.6207,0.6204,0.6218,0.6216,0.6182,0.6149,0.6217,0.6215,0.6091,0.6088,0.6084,0.6017,0,0,0,0,0,0,0.6182,0.6178,0.6157,0.6171,0.6169,0.6127,0.6182,0.6187,0.6182,0.6188,0.6196,0.6199,0.6219,0.6184,0.618,0.6147,0.6214,0.6094,0.609,0.6086,0.6022,0.6012,0.6003,0,0,0,0,0,0.6183,0.6137,0.6156,0.6153,0.6144,0.6125,0.6124,0.615,0.6179,0.6158,0.617,0.6199,0.6154,0.618,0.6176,0.6142,0.6096,0.6091,0.6086,0.6027,0.6014,0.6003,0,0,0,0,0,0,0.6117,0.6139,0.616,0.6118,0.612,0.6135,0.611,0.6135,0.6127,0.6133,0.6164,0.6165,0.6126,0.6132,0.6161,0.6089,0.613,0.6124,0.6087,0.6074,0.6065,0.6063,0.6212,0,0,0,0,0,0.6098,0.6082,0.6102,0.6062,0.6062,0.6086,0.6079,0.6098,0.6101,0.6101,0.611,0.611,0.6096,0.6086,0.6074,0.6024,0.6026,0.5999,0.5989,0.5981,0.5974,0.5947,0.5935,0.6066,0.6066,0.6066,0,0,0.6057,0.6068,0.6055,0.605,0.6053,0.6034,0.6086,0.6064,0.605,0.6097,0.6066,0.6073,0.6075,0.6033,0.6014,0.6035,0.5939,0.5974,0.5968,0.5965,0.5941,0.5928,0.5917,0.6062,0.6063,0.6063,0,0,0.5974,0.5981,0.5949,0.5952,0.5957,0.5974,0.5966,0.5978,0.5985,0.5955,0.599,0.5974,0.5949,0.5949,0.5945,0.5864,0.589,0.586,0.5807,0.578,0.577,0.5761,0.5731,0.5719,0.5853,0.5853,0.5853,0,0.5922,0.5897,0.5928,0.5905,0.5901,0.5945,0.5912,0.5913,0.5913,0.5909,0.5933,0.5904,0.5908,0.5866,0.5847,0.5843,0.5834,0.5857,0.5769,0.5761,0.5753,0.5724,0.5712,0.5849,0.585,0.585,0.585,0,0.5833,0.5815,0.5788,0.5789,0.5783,0.5754,0.578,0.577,0.5791,0.5804,0.5772,0.578,0.577,0.5762,0.5782,0.5723,0.5736,0.5764,0.5806,0.5736,0.5709,0.5698,0.5844,0.5845,0.5846,0.5847,0,0,0.5705,0.5726,0.5715,0.5717,0.5727,0.5713,0.5687,0.5679,0.5668,0.5668,0.5645,0.5625,0.5652,0.5648,0.5668,0.5645,0.5579,0.5677,0.5677,0.5657,0.5513,0.549,0.5476,0.5598,0.5596,0.5594,0.5512,0,0.5624,0.5581,0.5609,0.5561,0.5544,0.5587,0.5564,0.5567,0.5579,0.5566,0.558,0.5564,0.5602,0.5599,0.5579,0.5591,0.555,0.5598,0.5575,0.5574,0.5571,0.5463,0.5438,0.536,0.5502,0.55,0.5499,0,0.5522,0.5519,0.5469,0.5484,0.5478,0.5456,0.5452,0.5439,0.5444,0.5455,0.5451,0.5478,0.5452,0.5495,0.5459,0.5491,0.5484,0.5489,0.5487,0.5483,0.553,0.5454,0.5336,0.5323,0.5483,0.5485,0.5486,0,0.5432,0.5416,0.5384,0.5384,0.54,0.5384,0.5389,0.5397,0.539,0.5386,0.5382,0.5374,0.537,0.5363,0.5386,0.5416,0.5347,0.5392,0.5353,0.5352,0.5334,0.5334,0.5211,0.5333,0.5333,0.5334,0.5334,0,0.5337,0.5304,0.5343,0.5323,0.5288,0.5321,0.5285,0.5296,0.5302,0.5284,0.5321,0.5303,0.5336,0.5322,0.534,0.5307,0.5305,0.5311,0.5316,0.5307,0.5305,0.53,0.5305,0.5331,0.5331,0.5332,0.5332,0,0.5229,0.5254,0.5222,0.5241,0.5245,0.5218,0.5233,0.5215,0.5231,0.5208,0.5205,0.5229,0.5214,0.5238,0.5224,0.5237,0.519,0.5205,0.5189,0.5192,0.5151,0.5154,0.5018,0.5001,0.5136,0.5135,0.5134,0,0.5165,0.5141,0.5158,0.5149,0.5154,0.5139,0.5134,0.5166,0.5158,0.5162,0.5143,0.5132,0.5123,0.5097,0.5113,0.5103,0.5116,0.5069,0.5114,0.5106,0.5113,0.5113,0.511,0.5058,0.5057,0.5056,0.5055,0,0.5048,0.5062,0.5054,0.5049,0.5042,0.5039,0.5039,0.503,0.5064,0.5053,0.5039,0.5033,0.5021,0.5008,0.5003,0.5008,0.5036,0.5041,0.5031,0.5019,0.5011,0.5013,0.5161,0.5043,0.5044,0.5045,0.5046,0.5046,0.4959,0.494,0.4949,0.4938,0.4942,0.4942,0.4926,0.4941,0.493,0.4923,0.4943,0.4924,0.493,0.4926,0.4928,0.4912,0.4933,0.4919,0.4915,0.491,0.4903,0.5015,0.4912,0.4912,0.4912,0.4913,0.4913,0,0.4843,0.4852,0.4841,0.4841,0.4832,0.4863,0.4865,0.4855,0.4838,0.4842,0.4834,0.4817,0.4806,0.4822,0.4812,0.4797,0.481,0.4793,0.4793,0.4794,0.4886,0.4895,0.4783,0.4783,0.4783,0.4783,0.4783,0.4783,0.4781,0.475,0.4766,0.4737,0.4746,0.4728,0.4727,0.4726,0.473,0.471,0.4701,0.4713,0.4721,0.4713,0.4703,0.4708,0.4702,0.4681,0.469,0.4775,0.4787,0.4799,0.4808,0.468,0.4679,0.4599,0.4598,0.4597]}]]